Time,TemperatureF,DewpointF,PressureIn,WindDirection,WindDirectionDegrees,WindSpeedMPH,WindSpeedGustMPH,Humidity,HourlyPrecipIn,Conditions,Clouds,dailyrainin,SoftwareType,DateUTC
2013-07-04 00:07:00,70.3,50.8,29.86,South,173,0.0,5.0,50,0.00,,,-99.99,Weather View 32 v70,2013-07-04 05:07:00,
2013-07-04 00:17:00,70.2,50.6,29.86,ESE,121,3.0,5.0,50,0.00,,,-99.99,Weather View 32 v70,2013-07-04 05:17:00,
2013-07-04 00:22:00,70.2,50.1,29.86,SSE,150,4.0,5.0,49,0.00,,,-99.99,Weather View 32 v70,2013-07-04 05:22:00,
2013-07-04 00:32:00,70.3,49.7,29.86,South,171,4.0,5.0,48,0.00,,,-99.99,Weather View 32 v70,2013-07-04 05:32:00,
2013-07-04 00:37:00,70.5,49.3,29.86,South,186,3.0,5.0,47,0.00,,,-99.99,Weather View 32 v70,2013-07-04 05:37:00,
2013-07-04 00:47:00,70.7,48.8,29.86,SE,142,3.0,6.0,46,0.00,,,-99.99,Weather View 32 v70,2013-07-04 05:47:00,
2013-07-04 00:52:00,70.7,48.8,29.86,South,183,3.0,6.0,46,0.00,,,-99.99,Weather View 32 v70,2013-07-04 05:52:00,
2013-07-04 01:02:00,70.3,48.5,29.83,SSE,161,4.0,6.0,46,0.00,,,-99.99,Weather View 32 v70,2013-07-04 06:02:00,
2013-07-04 01:07:00,70.3,47.9,29.83,SSE,162,5.0,6.0,45,0.00,,,-99.99,Weather View 32 v70,2013-07-04 06:07:00,
2013-07-04 01:17:00,70.2,47.8,29.83,SSE,151,4.0,6.0,45,0.00,,,-99.99,Weather View 32 v70,2013-07-04 06:17:00,
2013-07-04 01:22:00,70.2,47.8,29.83,SSE,155,0.0,6.0,45,0.00,,,-99.99,Weather View 32 v70,2013-07-04 06:22:00,
2013-07-04 01:32:00,69.8,47.4,29.83,South,169,0.0,6.0,45,0.00,,,-99.99,Weather View 32 v70,2013-07-04 06:32:00,
2013-07-04 01:37:00,69.6,47.3,29.83,South,184,0.0,6.0,45,0.00,,,-99.99,Weather View 32 v70,2013-07-04 06:37:00,
2013-07-04 01:47:00,69.1,47.4,29.83,East,90,2.0,6.0,46,0.00,,,-99.99,Weather View 32 v70,2013-07-04 06:47:00,
2013-07-04 01:52:00,68.9,47.2,29.83,SSW,193,0.0,5.0,46,0.00,,,-99.99,Weather View 32 v70,2013-07-04 06:52:00,
2013-07-04 01:57:00,68.5,47.5,29.83,SSE,147,0.0,5.0,47,0.00,,,-99.99,Weather View 32 v70,2013-07-04 06:57:00,
2013-07-04 02:07:00,68.2,47.7,29.83,SE,127,0.0,5.0,48,0.00,,,-99.99,Weather View 32 v70,2013-07-04 07:07:00,
2013-07-04 02:12:00,67.8,47.9,29.83,South,180,0.0,5.0,49,0.00,,,-99.99,Weather View 32 v70,2013-07-04 07:12:00,
2013-07-04 02:17:00,67.6,47.7,29.83,SE,142,0.0,5.0,49,0.00,,,-99.99,Weather View 32 v70,2013-07-04 07:17:00,
2013-07-04 02:23:00,67.6,48.3,29.83,SSW,193,0.0,5.0,50,0.00,,,-99.99,Weather View 32 v70,2013-07-04 07:23:00,
2013-07-04 02:32:00,67.3,48.5,29.83,SSE,159,2.0,5.0,51,0.00,,,-99.99,Weather View 32 v70,2013-07-04 07:32:00,
2013-07-04 02:42:00,67.1,48.8,29.83,South,176,3.0,5.0,52,0.00,,,-99.99,Weather View 32 v70,2013-07-04 07:42:00,
2013-07-04 02:52:00,66.9,49.2,29.83,SSE,156,0.0,5.0,53,0.00,,,-99.99,Weather View 32 v70,2013-07-04 07:52:00,
2013-07-04 03:02:00,66.7,49.0,29.83,South,190,0.0,5.0,53,0.00,,,-99.99,Weather View 32 v70,2013-07-04 08:02:00,
2013-07-04 03:12:00,66.6,48.9,29.83,SSE,159,0.0,5.0,53,0.00,,,-99.99,Weather View 32 v70,2013-07-04 08:12:00,
2013-07-04 03:22:00,66.6,49.4,29.83,SSE,166,0.0,4.0,54,0.00,,,-99.99,Weather View 32 v70,2013-07-04 08:22:00,
2013-07-04 03:27:00,66.4,49.2,29.83,SSE,167,0.0,4.0,54,0.00,,,-99.99,Weather View 32 v70,2013-07-04 08:27:00,
2013-07-04 03:37:00,66.2,49.0,29.83,South,179,3.0,4.0,54,0.00,,,-99.99,Weather View 32 v70,2013-07-04 08:37:00,
2013-07-04 03:47:00,66.2,49.5,29.83,South,172,0.0,4.0,55,0.00,,,-99.99,Weather View 32 v70,2013-07-04 08:47:00,
2013-07-04 03:52:00,66.2,49.5,29.83,SE,124,0.0,4.0,55,0.00,,,-99.99,Weather View 32 v70,2013-07-04 08:52:00,
2013-07-04 04:02:00,66.2,49.5,29.83,SE,146,3.0,5.0,55,0.00,,,-99.99,Weather View 32 v70,2013-07-04 09:02:00,
2013-07-04 04:07:00,66.2,49.5,29.83,SE,146,0.0,5.0,55,0.00,,,-99.99,Weather View 32 v70,2013-07-04 09:07:00,
2013-07-04 04:17:00,66.0,49.3,29.83,ESE,110,4.0,5.0,55,0.00,,,-99.99,Weather View 32 v70,2013-07-04 09:17:00,
2013-07-04 04:24:00,66.0,49.3,29.83,South,173,3.0,5.0,55,0.00,,,-99.99,Weather View 32 v70,2013-07-04 09:24:00,
2013-07-04 04:32:00,65.8,49.7,29.80,South,185,4.0,6.0,56,0.00,,,-99.99,Weather View 32 v70,2013-07-04 09:32:00,
2013-07-04 04:42:00,65.7,49.5,29.80,South,180,3.0,6.0,56,0.00,,,-99.99,Weather View 32 v70,2013-07-04 09:42:00,
2013-07-04 04:47:00,65.5,49.3,29.83,South,189,0.0,6.0,56,0.00,,,-99.99,Weather View 32 v70,2013-07-04 09:47:00,
2013-07-04 04:57:00,65.1,49.5,29.83,South,183,3.0,6.0,57,0.00,,,-99.99,Weather View 32 v70,2013-07-04 09:57:00,
2013-07-04 05:02:00,64.9,49.3,29.83,SSE,151,0.0,6.0,57,0.00,,,-99.99,Weather View 32 v70,2013-07-04 10:02:00,
2013-07-04 05:12:00,64.8,49.6,29.83,SSE,155,3.0,6.0,58,0.00,,,-99.99,Weather View 32 v70,2013-07-04 10:12:00,
2013-07-04 05:22:00,64.6,49.9,29.83,South,185,2.0,6.0,59,0.00,,,-99.99,Weather View 32 v70,2013-07-04 10:22:00,
2013-07-04 05:27:00,64.6,49.9,29.83,SSE,167,2.0,6.0,59,0.00,,,-99.99,Weather View 32 v70,2013-07-04 10:27:00,
2013-07-04 05:37:00,64.4,49.7,29.80,SSE,165,0.0,6.0,59,0.00,,,-99.99,Weather View 32 v70,2013-07-04 10:37:00,
2013-07-04 05:47:00,64.4,50.2,29.80,SSE,153,0.0,6.0,60,0.00,,,-99.99,Weather View 32 v70,2013-07-04 10:47:00,
2013-07-04 05:52:00,64.2,50.0,29.80,ESE,106,0.0,6.0,60,0.00,,,-99.99,Weather View 32 v70,2013-07-04 10:52:00,
2013-07-04 06:02:00,64.4,50.6,29.80,ESE,105,4.0,6.0,61,0.00,,,-99.99,Weather View 32 v70,2013-07-04 11:02:00,
2013-07-04 06:07:00,64.4,50.6,29.80,SSW,195,4.0,6.0,61,0.00,,,-99.99,Weather View 32 v70,2013-07-04 11:07:00,
2013-07-04 06:17:00,64.8,51.0,29.80,East,101,3.0,6.0,61,0.00,,,-99.99,Weather View 32 v70,2013-07-04 11:17:00,
2013-07-04 06:25:00,64.8,51.0,29.80,SE,137,0.0,6.0,61,0.00,,,-99.99,Weather View 32 v70,2013-07-04 11:25:00,
2013-07-04 06:32:00,64.9,51.1,29.80,SSE,165,4.0,6.0,61,0.00,,,-99.99,Weather View 32 v70,2013-07-04 11:32:00,
2013-07-04 06:37:00,64.9,51.1,29.80,SSE,164,0.0,6.0,61,0.00,,,-99.99,Weather View 32 v70,2013-07-04 11:37:00,
2013-07-04 06:47:00,64.9,51.1,29.80,SSE,152,0.0,6.0,61,0.00,,,-99.99,Weather View 32 v70,2013-07-04 11:47:00,
2013-07-04 06:52:00,64.9,51.6,29.80,SE,127,4.0,6.0,62,0.00,,,-99.99,Weather View 32 v70,2013-07-04 11:52:00,
2013-07-04 06:57:00,65.1,51.7,29.80,SE,145,0.0,6.0,62,0.00,,,-99.99,Weather View 32 v70,2013-07-04 11:57:00,
2013-07-04 07:07:00,65.1,51.7,29.80,SE,146,2.0,6.0,62,0.00,,,-99.99,Weather View 32 v70,2013-07-04 12:07:00,
2013-07-04 07:17:00,65.5,52.5,29.80,SE,140,3.0,6.0,63,0.00,,,-99.99,Weather View 32 v70,2013-07-04 12:17:00,
2013-07-04 07:26:00,65.7,52.7,29.80,South,186,2.0,6.0,63,0.00,,,-99.99,Weather View 32 v70,2013-07-04 12:26:00,
2013-07-04 07:32:00,66.0,53.0,29.80,SSE,158,4.0,6.0,63,0.00,,,-99.99,Weather View 32 v70,2013-07-04 12:32:00,
2013-07-04 07:37:00,66.4,53.4,29.80,SE,142,3.0,6.0,63,0.00,,,-99.99,Weather View 32 v70,2013-07-04 12:37:00,
2013-07-04 07:42:00,66.6,53.5,29.80,South,171,3.0,6.0,63,0.00,,,-99.99,Weather View 32 v70,2013-07-04 12:42:00,
2013-07-04 07:47:00,66.9,53.9,29.80,SSE,156,0.0,6.0,63,0.00,,,-99.99,Weather View 32 v70,2013-07-04 12:47:00,
2013-07-04 07:57:00,67.5,54.4,29.80,South,171,4.0,6.0,63,0.00,,,-99.99,Weather View 32 v70,2013-07-04 12:57:00,
2013-07-04 08:07:00,68.0,54.5,29.80,SSW,193,4.0,6.0,62,0.00,,,-99.99,Weather View 32 v70,2013-07-04 13:07:00,
2013-07-04 08:12:00,68.2,54.6,29.80,SSE,150,0.0,6.0,62,0.00,,,-99.99,Weather View 32 v70,2013-07-04 13:12:00,
2013-07-04 08:22:00,68.7,55.1,29.80,SSW,197,4.0,7.0,62,0.00,,,-99.99,Weather View 32 v70,2013-07-04 13:22:00,
2013-07-04 08:27:00,69.1,55.0,29.80,SSE,163,2.0,7.0,61,0.00,,,-99.99,Weather View 32 v70,2013-07-04 13:27:00,
2013-07-04 08:32:00,69.4,55.4,29.77,SE,133,4.0,7.0,61,0.00,,,-99.99,Weather View 32 v70,2013-07-04 13:32:00,
2013-07-04 08:42:00,70.3,55.8,29.77,SSE,153,4.0,7.0,60,0.00,,,-99.99,Weather View 32 v70,2013-07-04 13:42:00,
2013-07-04 08:47:00,70.7,55.6,29.77,SE,136,4.0,7.0,59,0.00,,,-99.99,Weather View 32 v70,2013-07-04 13:47:00,
2013-07-04 08:52:00,71.2,56.1,29.77,SSE,158,5.0,7.0,59,0.00,,,-99.99,Weather View 32 v70,2013-07-04 13:52:00,
2013-07-04 09:02:00,72.3,55.2,29.77,SE,141,0.0,7.0,55,0.00,,,-99.99,Weather View 32 v70,2013-07-04 14:02:00,
2013-07-04 09:07:00,72.9,55.7,29.77,South,175,3.0,7.0,55,0.00,,,-99.99,Weather View 32 v70,2013-07-04 14:07:00,
2013-07-04 09:17:00,74.1,54.8,29.77,SSW,199,0.0,9.0,51,0.00,,,-99.99,Weather View 32 v70,2013-07-04 14:17:00,
2013-07-04 09:22:00,74.3,54.4,29.77,SE,143,3.0,9.0,50,0.00,,,-99.99,Weather View 32 v70,2013-07-04 14:22:00,
2013-07-04 09:27:00,74.7,54.7,29.77,ESE,103,5.0,9.0,50,0.00,,,-99.99,Weather View 32 v70,2013-07-04 14:27:00,
2013-07-04 09:37:00,75.2,55.2,29.77,SW,218,3.0,9.0,50,0.00,,,-99.99,Weather View 32 v70,2013-07-04 14:37:00,
2013-07-04 09:42:00,75.9,55.3,29.77,South,170,3.0,9.0,49,0.00,,,-99.99,Weather View 32 v70,2013-07-04 14:42:00,
2013-07-04 09:47:00,76.5,55.8,29.77,East,95,3.0,9.0,49,0.00,,,-99.99,Weather View 32 v70,2013-07-04 14:47:00,
2013-07-04 09:52:00,77.0,54.6,29.77,ESE,120,4.0,9.0,46,0.00,,,-99.99,Weather View 32 v70,2013-07-04 14:52:00,
2013-07-04 10:02:00,77.7,54.6,29.77,SE,135,6.0,9.0,45,0.00,,,-99.99,Weather View 32 v70,2013-07-04 15:02:00,
2013-07-04 10:12:00,78.6,55.4,29.77,South,190,3.0,9.0,45,0.00,,,-99.99,Weather View 32 v70,2013-07-04 15:12:00,
2013-07-04 10:22:00,79.7,55.1,29.74,SE,133,4.0,8.0,43,0.00,,,-99.99,Weather View 32 v70,2013-07-04 15:22:00,
2013-07-04 10:28:00,80.1,54.2,29.74,South,182,5.0,8.0,41,0.00,,,-99.99,Weather View 32 v70,2013-07-04 15:28:00,
2013-07-04 10:37:00,80.4,54.5,29.74,SSE,154,3.0,8.0,41,0.00,,,-99.99,Weather View 32 v70,2013-07-04 15:37:00,
2013-07-04 10:42:00,80.8,54.8,29.74,SSE,148,4.0,8.0,41,0.00,,,-99.99,Weather View 32 v70,2013-07-04 15:42:00,
2013-07-04 10:47:00,81.3,55.3,29.74,South,183,6.0,8.0,41,0.00,,,-99.99,Weather View 32 v70,2013-07-04 15:47:00,
2013-07-04 10:57:00,82.0,55.2,29.74,SSW,197,4.0,8.0,40,0.00,,,-99.99,Weather View 32 v70,2013-07-04 15:57:00,
2013-07-04 11:07:00,81.9,55.1,29.74,SE,138,5.0,8.0,40,0.00,,,-99.99,Weather View 32 v70,2013-07-04 16:07:00,
2013-07-04 11:12:00,82.4,56.3,29.74,South,175,4.0,8.0,41,0.00,,,-99.99,Weather View 32 v70,2013-07-04 16:12:00,
2013-07-04 11:17:00,83.3,56.4,29.74,South,169,4.0,8.0,40,0.00,,,-99.99,Weather View 32 v70,2013-07-04 16:17:00,
2013-07-04 11:22:00,83.8,55.4,29.74,SSE,163,4.0,8.0,38,0.00,,,-99.99,Weather View 32 v70,2013-07-04 16:22:00,
2013-07-04 11:28:00,83.8,53.9,29.74,SSE,160,4.0,8.0,36,0.00,,,-99.99,Weather View 32 v70,2013-07-04 16:28:00,
2013-07-04 11:37:00,83.3,54.2,29.74,SSE,158,5.0,9.0,37,0.00,,,-99.99,Weather View 32 v70,2013-07-04 16:37:00,
2013-07-04 11:42:00,83.5,53.6,29.74,South,171,4.0,11.0,36,0.00,,,-99.99,Weather View 32 v70,2013-07-04 16:42:00,
2013-07-04 11:52:00,84.9,54.9,29.74,SSE,163,4.0,11.0,36,0.00,,,-99.99,Weather View 32 v70,2013-07-04 16:52:00,
2013-07-04 11:57:00,85.6,54.7,29.74,South,175,3.0,11.0,35,0.00,,,-99.99,Weather View 32 v70,2013-07-04 16:57:00,
2013-07-04 12:02:00,85.8,54.9,29.74,SSW,200,5.0,11.0,35,0.00,,,-99.99,Weather View 32 v70,2013-07-04 17:02:00,
2013-07-04 12:07:00,85.8,53.3,29.74,South,190,9.0,11.0,33,0.00,,,-99.99,Weather View 32 v70,2013-07-04 17:07:00,
2013-07-04 12:17:00,85.3,53.6,29.71,SSE,166,6.0,11.0,34,0.00,,,-99.99,Weather View 32 v70,2013-07-04 17:17:00,
2013-07-04 12:22:00,85.5,53.0,29.71,SSE,159,8.0,11.0,33,0.00,,,-99.99,Weather View 32 v70,2013-07-04 17:22:00,
2013-07-04 12:29:00,85.3,52.8,29.71,SSE,165,5.0,11.0,33,0.00,,,-99.99,Weather View 32 v70,2013-07-04 17:29:00,
2013-07-04 12:37:00,84.9,53.3,29.71,SSW,202,6.0,11.0,34,0.00,,,-99.99,Weather View 32 v70,2013-07-04 17:37:00,
2013-07-04 12:47:00,84.4,52.0,29.71,SSW,206,8.0,13.0,33,0.00,,,-99.99,Weather View 32 v70,2013-07-04 17:47:00,
2013-07-04 12:52:00,84.4,52.0,29.71,SSW,197,4.0,13.0,33,0.00,,,-99.99,Weather View 32 v70,2013-07-04 17:52:00,
2013-07-04 13:02:00,85.3,53.6,29.71,South,173,3.0,13.0,34,0.00,,,-99.99,Weather View 32 v70,2013-07-04 18:02:00,
2013-07-04 13:07:00,85.8,53.3,29.71,SE,143,8.0,13.0,33,0.00,,,-99.99,Weather View 32 v70,2013-07-04 18:07:00,
2013-07-04 13:17:00,85.8,53.3,29.71,SSW,199,3.0,13.0,33,0.00,,,-99.99,Weather View 32 v70,2013-07-04 18:17:00,
2013-07-04 13:27:00,85.5,53.0,29.71,SE,140,7.0,13.0,33,0.00,,,-99.99,Weather View 32 v70,2013-07-04 18:27:00,
2013-07-04 13:32:00,85.5,53.0,29.71,SSW,192,4.0,13.0,33,0.00,,,-99.99,Weather View 32 v70,2013-07-04 18:32:00,
2013-07-04 13:42:00,85.5,52.1,29.71,South,177,3.0,13.0,32,0.00,,,-99.99,Weather View 32 v70,2013-07-04 18:42:00,
2013-07-04 13:52:00,85.5,53.0,29.71,SSE,150,4.0,11.0,33,0.00,,,-99.99,Weather View 32 v70,2013-07-04 18:52:00,
2013-07-04 14:02:00,85.5,53.0,29.71,SE,145,3.0,11.0,33,0.00,,,-99.99,Weather View 32 v70,2013-07-04 19:02:00,
2013-07-04 14:07:00,85.3,52.8,29.71,SSE,147,5.0,11.0,33,0.00,,,-99.99,Weather View 32 v70,2013-07-04 19:07:00,
2013-07-04 14:17:00,85.3,52.8,29.71,SE,134,5.0,10.0,33,0.00,,,-99.99,Weather View 32 v70,2013-07-04 19:17:00,
2013-07-04 14:27:00,85.6,53.1,29.71,SW,230,5.0,10.0,33,0.00,,,-99.99,Weather View 32 v70,2013-07-04 19:27:00,
2013-07-04 14:32:00,86.0,53.4,29.71,SSW,192,3.0,10.0,33,0.00,,,-99.99,Weather View 32 v70,2013-07-04 19:32:00,
2013-07-04 14:37:00,86.9,55.1,29.71,SSW,203,3.0,10.0,34,0.00,,,-99.99,Weather View 32 v70,2013-07-04 19:37:00,
2013-07-04 14:42:00,88.7,54.9,29.71,SE,130,4.0,11.0,32,0.00,,,-99.99,Weather View 32 v70,2013-07-04 19:42:00,
2013-07-04 14:52:00,90.9,54.1,29.71,SSE,151,6.0,11.0,29,0.00,,,-99.99,Weather View 32 v70,2013-07-04 19:52:00,
2013-07-04 14:57:00,91.2,54.4,29.71,SSW,193,3.0,11.0,29,0.00,,,-99.99,Weather View 32 v70,2013-07-04 19:57:00,
2013-07-04 15:07:00,91.2,53.4,29.71,SE,131,5.0,13.0,28,0.00,,,-99.99,Weather View 32 v70,2013-07-04 20:07:00,
2013-07-04 15:12:00,90.7,53.0,29.71,WSW,245,3.0,13.0,28,0.00,,,-99.99,Weather View 32 v70,2013-07-04 20:12:00,
2013-07-04 15:22:00,89.2,52.7,29.71,South,176,4.0,13.0,29,0.00,,,-99.99,Weather View 32 v70,2013-07-04 20:22:00,
2013-07-04 15:31:00,89.1,52.6,29.71,SSE,166,6.0,13.0,29,0.00,,,-99.99,Weather View 32 v70,2013-07-04 20:31:00,
2013-07-04 15:37:00,89.4,52.9,29.71,ENE,75,4.0,13.0,29,0.00,,,-99.99,Weather View 32 v70,2013-07-04 20:37:00,
2013-07-04 15:47:00,89.8,52.2,29.71,South,183,6.0,13.0,28,0.00,,,-99.99,Weather View 32 v70,2013-07-04 20:47:00,
2013-07-04 15:52:00,90.5,52.8,29.71,SSE,165,6.0,13.0,28,0.00,,,-99.99,Weather View 32 v70,2013-07-04 20:52:00,
2013-07-04 16:02:00,91.4,52.6,29.71,SSE,152,9.0,13.0,27,0.00,,,-99.99,Weather View 32 v70,2013-07-04 21:02:00,
2013-07-04 16:12:00,92.8,53.8,29.71,SSE,152,5.0,13.0,27,0.00,,,-99.99,Weather View 32 v70,2013-07-04 21:12:00,
2013-07-04 16:17:00,93.2,53.1,29.71,South,190,4.0,13.0,26,0.00,,,-99.99,Weather View 32 v70,2013-07-04 21:17:00,
2013-07-04 16:22:00,93.0,52.9,29.71,SSE,156,5.0,13.0,26,0.00,,,-99.99,Weather View 32 v70,2013-07-04 21:22:00,
2013-07-04 16:31:00,92.5,53.5,29.71,South,179,4.0,13.0,27,0.00,,,-99.99,Weather View 32 v70,2013-07-04 21:31:00,
2013-07-04 16:37:00,92.1,52.2,29.68,SE,140,5.0,13.0,26,0.00,,,-99.99,Weather View 32 v70,2013-07-04 21:37:00,
2013-07-04 16:42:00,91.9,53.1,29.68,SSE,155,5.0,13.0,27,0.00,,,-99.99,Weather View 32 v70,2013-07-04 21:42:00,
2013-07-04 16:47:00,92.3,52.3,29.68,SSE,156,7.0,13.0,26,0.00,,,-99.99,Weather View 32 v70,2013-07-04 21:47:00,
2013-07-04 16:52:00,92.7,52.6,29.68,SSW,193,8.0,12.0,26,0.00,,,-99.99,Weather View 32 v70,2013-07-04 21:52:00,
2013-07-04 16:57:00,92.7,52.6,29.68,SW,216,7.0,13.0,26,0.00,,,-99.99,Weather View 32 v70,2013-07-04 21:57:00,
2013-07-04 17:02:00,92.8,53.8,29.68,ESE,117,4.0,13.0,27,0.00,,,-99.99,Weather View 32 v70,2013-07-04 22:02:00,
2013-07-04 17:12:00,92.7,53.7,29.68,SSW,193,4.0,13.0,27,0.00,,,-99.99,Weather View 32 v70,2013-07-04 22:12:00,
2013-07-04 17:17:00,92.8,53.8,29.68,SSE,160,4.0,13.0,27,0.00,,,-99.99,Weather View 32 v70,2013-07-04 22:17:00,
2013-07-04 17:27:00,93.2,54.1,29.68,SSW,197,5.0,13.0,27,0.00,,,-99.99,Weather View 32 v70,2013-07-04 22:27:00,
2013-07-04 17:32:00,93.4,53.2,29.68,SSE,156,6.0,13.0,26,0.00,,,-99.99,Weather View 32 v70,2013-07-04 22:32:00,
2013-07-04 17:42:00,93.0,54.0,29.68,NW,304,4.0,13.0,27,0.00,,,-99.99,Weather View 32 v70,2013-07-04 22:42:00,
2013-07-04 17:52:00,92.7,53.7,29.68,SW,227,4.0,13.0,27,0.00,,,-99.99,Weather View 32 v70,2013-07-04 22:52:00,
2013-07-04 17:57:00,92.5,53.5,29.68,SSW,195,5.0,13.0,27,0.00,,,-99.99,Weather View 32 v70,2013-07-04 22:57:00,
2013-07-04 18:07:00,92.3,53.4,29.68,SW,216,4.0,12.0,27,0.00,,,-99.99,Weather View 32 v70,2013-07-04 23:07:00,
2013-07-04 18:17:00,92.1,54.2,29.68,SSW,196,5.0,12.0,28,0.00,,,-99.99,Weather View 32 v70,2013-07-04 23:17:00,
2013-07-04 18:22:00,91.9,54.1,29.68,SSE,152,8.0,12.0,28,0.00,,,-99.99,Weather View 32 v70,2013-07-04 23:22:00,
2013-07-04 18:27:00,91.8,53.9,29.68,SE,146,6.0,12.0,28,0.00,,,-99.99,Weather View 32 v70,2013-07-04 23:27:00,
2013-07-04 18:32:00,91.6,53.7,29.68,South,175,5.0,12.0,28,0.00,,,-99.99,Weather View 32 v70,2013-07-04 23:32:00,
2013-07-04 18:42:00,91.4,53.6,29.68,SE,146,4.0,12.0,28,0.00,,,-99.99,Weather View 32 v70,2013-07-04 23:42:00,
2013-07-04 18:47:00,91.2,54.4,29.68,South,180,4.0,11.0,29,0.00,,,-99.99,Weather View 32 v70,2013-07-04 23:47:00,
2013-07-04 18:57:00,91.4,53.6,29.68,ESE,123,4.0,11.0,28,0.00,,,-99.99,Weather View 32 v70,2013-07-04 23:57:00,
2013-07-04 19:02:00,91.6,54.7,29.68,SSE,161,6.0,11.0,29,0.00,,,-99.99,Weather View 32 v70,2013-07-05 00:02:00,
2013-07-04 19:07:00,91.4,54.6,29.68,SSW,193,5.0,9.0,29,0.00,,,-99.99,Weather View 32 v70,2013-07-05 00:07:00,
2013-07-04 19:12:00,91.2,54.4,29.68,SE,135,6.0,9.0,29,0.00,,,-99.99,Weather View 32 v70,2013-07-05 00:12:00,
2013-07-04 19:22:00,90.7,53.9,29.68,South,174,6.0,8.0,29,0.00,,,-99.99,Weather View 32 v70,2013-07-05 00:22:00,
2013-07-04 19:27:00,90.5,53.8,29.68,SE,129,3.0,8.0,29,0.00,,,-99.99,Weather View 32 v70,2013-07-05 00:27:00,
2013-07-04 19:32:00,90.3,53.6,29.68,SSE,161,5.0,8.0,29,0.00,,,-99.99,Weather View 32 v70,2013-07-05 00:32:00,
2013-07-04 19:37:00,90.0,53.3,29.68,SW,217,6.0,8.0,29,0.00,,,-99.99,Weather View 32 v70,2013-07-05 00:37:00,
2013-07-04 19:47:00,89.6,53.0,29.68,SE,128,5.0,8.0,29,0.00,,,-99.99,Weather View 32 v70,2013-07-05 00:47:00,
2013-07-04 19:52:00,89.4,53.8,29.68,SSW,209,5.0,8.0,30,0.00,,,-99.99,Weather View 32 v70,2013-07-05 00:52:00,
2013-07-04 19:57:00,89.2,52.7,29.68,SW,223,3.0,9.0,29,0.00,,,-99.99,Weather View 32 v70,2013-07-05 00:57:00,
2013-07-04 20:02:00,88.9,53.3,29.68,SSW,213,4.0,9.0,30,0.00,,,-99.99,Weather View 32 v70,2013-07-05 01:02:00,
2013-07-04 20:12:00,88.9,53.3,29.68,SSW,213,0.0,9.0,30,0.00,,,-99.99,Weather View 32 v70,2013-07-05 01:12:00,
2013-07-04 20:17:00,88.9,54.2,29.68,SSW,211,3.0,9.0,31,0.00,,,-99.99,Weather View 32 v70,2013-07-05 01:17:00,
2013-07-04 20:22:00,88.7,54.1,29.68,SSE,166,0.0,9.0,31,0.00,,,-99.99,Weather View 32 v70,2013-07-05 01:22:00,
2013-07-04 20:27:00,88.5,53.9,29.68,South,190,0.0,9.0,31,0.00,,,-99.99,Weather View 32 v70,2013-07-05 01:27:00,
2013-07-04 20:33:00,88.3,54.6,29.68,South,191,0.0,9.0,32,0.00,,,-99.99,Weather View 32 v70,2013-07-05 01:33:00,
2013-07-04 20:42:00,87.6,54.9,29.68,South,180,0.0,9.0,33,0.00,,,-99.99,Weather View 32 v70,2013-07-05 01:42:00,
2013-07-04 20:47:00,87.3,55.4,29.68,South,180,0.0,9.0,34,0.00,,,-99.99,Weather View 32 v70,2013-07-05 01:47:00,
2013-07-04 20:52:00,86.9,55.9,29.68,South,180,0.0,9.0,35,0.00,,,-99.99,Weather View 32 v70,2013-07-05 01:52:00,
2013-07-04 21:02:00,85.8,56.4,29.68,South,179,0.0,6.0,37,0.00,,,-99.99,Weather View 32 v70,2013-07-05 02:02:00,
2013-07-04 21:07:00,85.3,56.7,29.68,South,179,0.0,6.0,38,0.00,,,-99.99,Weather View 32 v70,2013-07-05 02:07:00,
2013-07-04 21:12:00,84.7,57.7,29.68,SSE,167,0.0,4.0,40,0.00,,,-99.99,Weather View 32 v70,2013-07-05 02:12:00,
2013-07-04 21:17:00,84.2,57.2,29.68,South,170,0.0,4.0,40,0.00,,,-99.99,Weather View 32 v70,2013-07-05 02:17:00,
2013-07-04 21:27:00,83.5,57.2,29.68,SE,144,0.0,5.0,41,0.00,,,-99.99,Weather View 32 v70,2013-07-05 02:27:00,
2013-07-04 21:32:00,83.1,57.6,29.68,SSE,156,0.0,5.0,42,0.00,,,-99.99,Weather View 32 v70,2013-07-05 02:32:00,
2013-07-04 21:37:00,82.6,57.1,29.68,SSE,156,0.0,5.0,42,0.00,,,-99.99,Weather View 32 v70,2013-07-05 02:37:00,
2013-07-04 21:47:00,81.9,57.1,29.68,SSE,156,0.0,5.0,43,0.00,,,-99.99,Weather View 32 v70,2013-07-05 02:47:00,
2013-07-04 21:52:00,81.5,57.4,29.68,SSE,156,0.0,5.0,44,0.00,,,-99.99,Weather View 32 v70,2013-07-05 02:52:00,
2013-07-04 21:57:00,81.1,57.1,29.68,SSE,156,0.0,5.0,44,0.00,,,-99.99,Weather View 32 v70,2013-07-05 02:57:00,
2013-07-04 22:02:00,80.8,57.4,29.68,SSE,156,0.0,5.0,45,0.00,,,-99.99,Weather View 32 v70,2013-07-05 03:02:00,
2013-07-04 22:12:00,80.1,57.3,29.68,SSE,156,0.0,5.0,46,0.00,,,-99.99,Weather View 32 v70,2013-07-05 03:12:00,
2013-07-04 22:17:00,79.5,56.9,29.68,SSE,156,0.0,5.0,46,0.00,,,-99.99,Weather View 32 v70,2013-07-05 03:17:00,
2013-07-04 22:22:00,79.2,56.5,29.68,SSE,156,0.0,5.0,46,0.00,,,-99.99,Weather View 32 v70,2013-07-05 03:22:00,
2013-07-04 22:32:00,78.6,56.0,29.68,SSE,156,3.0,4.0,46,0.00,,,-99.99,Weather View 32 v70,2013-07-05 03:32:00,
2013-07-04 22:37:00,78.4,56.5,29.68,SSE,156,0.0,4.0,47,0.00,,,-99.99,Weather View 32 v70,2013-07-05 03:37:00,
2013-07-04 22:42:00,78.1,55.5,29.68,SSE,155,2.0,4.0,46,0.00,,,-99.99,Weather View 32 v70,2013-07-05 03:42:00,
2013-07-04 22:52:00,77.4,54.9,29.68,SSE,160,0.0,4.0,46,0.00,,,-99.99,Weather View 32 v70,2013-07-05 03:52:00,
2013-07-04 23:02:00,76.6,55.4,29.68,SSE,160,0.0,4.0,48,0.00,,,-99.99,Weather View 32 v70,2013-07-05 04:02:00,
2013-07-04 23:07:00,76.5,55.8,29.68,SSE,160,2.0,4.0,49,0.00,,,-99.99,Weather View 32 v70,2013-07-05 04:07:00,
2013-07-04 23:12:00,76.1,56.0,29.68,SSE,160,0.0,4.0,50,0.00,,,-99.99,Weather View 32 v70,2013-07-05 04:12:00,
2013-07-04 23:17:00,75.9,56.4,29.68,SSE,160,0.0,4.0,51,0.00,,,-99.99,Weather View 32 v70,2013-07-05 04:17:00,
2013-07-04 23:22:00,75.7,57.3,29.68,SSE,159,0.0,4.0,53,0.00,,,-99.99,Weather View 32 v70,2013-07-05 04:22:00,
2013-07-04 23:27:00,75.6,58.2,29.68,SSE,163,0.0,4.0,55,0.00,,,-99.99,Weather View 32 v70,2013-07-05 04:27:00,
2013-07-04 23:32:00,75.6,59.2,29.68,SSE,153,3.0,4.0,57,0.00,,,-99.99,Weather View 32 v70,2013-07-05 04:32:00,
2013-07-04 23:37:00,75.7,59.4,29.68,SSE,162,4.0,5.0,57,0.00,,,-99.99,Weather View 32 v70,2013-07-05 04:37:00,
2013-07-04 23:47:00,75.9,59.5,29.68,SSE,158,0.0,5.0,57,0.00,,,-99.99,Weather View 32 v70,2013-07-05 04:47:00,
2013-07-04 23:52:00,75.9,59.5,29.68,SE,138,2.0,5.0,57,0.00,,,-99.99,Weather View 32 v70,2013-07-05 04:52:00,
2013-07-04 23:57:00,75.7,59.4,29.68,SE,143,0.0,5.0,57,0.00,,,-99.99,Weather View 32 v70,2013-07-05 04:57:00,